Miscellaneous Local Product
Issued by NWS Hastings, NE

Home | Current Version | Previous Version | Graphics & Text | Print | Product List | Glossary On
Versions: 1 2 3 4 5 6 7 8 9 10 11 12 13 14 15 16 17 18 19 20 21 22 23 24 25 26 27 28 29 30 31 32 33 34 35 36 37 38 39 40 41 42 43 44 45 46 47 48 49 50
000
AXUS43 KGID 241202
MISGRI

GID CWA HOURLY WEATHER ROUNDUP
NATIONAL WEATHER SERVICE HASTINGS NE
700 AM CDT TUE MAY 24 2016

NOTE: "FAIR" INDICATES FEW OR NO CLOUDS BELOW 12,000 FEET WITH NO
SIGNIFICANT WEATHER AND/OR OBSTRUCTIONS TO VISIBILITY.

...SOUTH CENTRAL NEBRASKA...

CITY           SKY/WX    TMP DP  RH WIND       PRES   REMARKS
GRAND ISLAND   LGT RAIN  60  59  96 N8        29.89R
HASTINGS       LGT RAIN  62  60  93 W7        29.92R
KEARNEY        CLOUDY    63  59  88 S6        29.91S
ORD            CLOUDY    54  52  93 CALM      29.89R
YORK           CLOUDY    59  57  94 CALM      29.90R FOG
AURORA         LGT RAIN  59  59 100 CALM      29.91R
LEXINGTON      CLOUDY    56  51  82 W3        29.90S
HOLDREGE       DRIZZLE   63  60  91 W5        29.91R
HEBRON         RAIN      61  58  89 SW9       29.92R

...NEBRASKA PANHANDLE...

CITY           SKY/WX    TMP DP  RH WIND       PRES   REMARKS
CHADRON        CLEAR     42  38  85 S6        29.89R
ALLIANCE       CLEAR     35  34  96 S8        29.90R WCI  29
SCOTTSBLUFF    CLEAR     39  36  89 N6        29.91R WCI  35
SIDNEY         CLOUDY    44  40  85 W5        29.93R

...WESTERN AND NORTH CENTRAL NEBRASKA...

CITY           SKY/WX    TMP DP  RH WIND       PRES   REMARKS
VALENTINE      CLEAR     47  42  83 SW7       29.88R
AINSWORTH      CLEAR     47  43  84 SW6       29.89R
ONEILL         CLOUDY    51  47  87 S6        29.87R
BROKEN BOW     CLOUDY    51  48  89 N3        29.90R
IMPERIAL       CLOUDY    55  48  77 W5        29.88R
NORTH PLATTE   CLOUDY    54  47  77 VRB5      29.85F
MCCOOK         CLOUDY    55  48  77 E5        29.86F

...EASTERN NEBRASKA...

CITY           SKY/WX    TMP DP  RH WIND       PRES   REMARKS
NORFOLK        CLOUDY    58  55  90 S5        29.88R
SO SIOUX CITY  CLOUDY    61  59  93 S6        29.87R FOG
TEKAMAH        CLOUDY    58  57  97 S6        29.89R
COLUMBUS       CLOUDY    57  50  77 CALM      29.91R
ALBION         CLOUDY    59  56  89 CALM      29.89R
OMAHA EPPLEY   CLOUDY    63  60  90 SW3       29.90R
MILLARD        CLOUDY    61  59  95 CALM      29.88R
LINCOLN        CLOUDY    60  59  96 N5        29.89R
NEBRASKA CITY  CLOUDY    63  63 100 CALM      29.91R
BEATRICE       CLOUDY    62  58  88 W5        29.92R
FALLS CITY     TSTM      66  57  72 VRB6      29.86F

...NORTHERN KANSAS...

CITY           SKY/WX    TMP DP  RH WIND       PRES   REMARKS
GOODLAND       PTCLDY    52  45  77 E7        29.88R
HILL CITY      CLOUDY    59  57  93 SE5       29.88S
NORTON         SUNNY     57  54  88 CALM      29.89R
PHILLIPSBURG   MOCLDY    61  59  94 W12       29.89R
SMITH CENTER   DRIZZLE   59  57  94 SW3G21    29.89R
BELOIT         CLOUDY    61  57  88 SE16      29.89F
HAYS           CLOUDY    59  48  67 E22G28    29.87F
RUSSELL        CLOUDY    58  56  93 E18       29.89S
CONCORDIA      LGT RAIN  60  58  92 E6        29.93R
SALINA         CLOUDY    63  60  90 MISG      29.98R THUNDER
TOPEKA         MOCLDY    61  59  93 S3        29.91R



USA.gov is the U.S. government's official web portal to all federal, state and local government web resources and services.